Content
SEND FEEDBACK

Daily
Averages
Monthly
Summary
United States of America

LAUGHLIN, NEVADA


Home > North America > United States > Nevada
Elevation: 1018 feet     Latitude: 35 10N     Longitude: 114 37W

WEATHER
 
SELECT A DAY
Number of Records: 182,047;   Date Range: 7/1/96 - 9/3/14
 
SHARE

PRINT THIS DATA

[ ← Previous Day ]
WEATHER ALMANAC - SEPTEMBER 8, 2013
[ Next Day → ]
[ °C ]   °F
Weather ElementAverageHighLow
Temperature84.1 °F91.4 °F (2:35 pm)75.2 °F (5:15 am)
Dewpoint63.6 °F68 °F (2:15 am)59 °F (4:35 pm)
Humidity51.4 %73 % (5:15 am)34 % (4:35 pm)
Barometer29.82 in29.89 in (9:15 am)29.72 in (6:15 pm)
Wind Speed13.7 mph21.9 mph (9:35 am)
Wind Gust27.6 mph (9:55 am)
Weather ElementAverage
Visibility9.9 mi
Wind DirectionS (184.1 °)

Weather ElementTotal
Precipitation0.02 in
Cooling Degree Days18.3 (Base 65)
Growing Degree Days33.3 (Base 50)
Averaged from 71 records on September 8, 2013
WEATHER CONDITIONS BREAKOUT
WIND DIRECTION BREAKOUT
WEATHER BY HOUR - SEPTEMBER 8, 2013
[ °C ]   °F
Local TimeTemperatureDewpointHumidityBarometerVisibilityWind DirectionWind SpeedGust SpeedPrecipitationEventsConditions
12:35 AM84.2 °F62.6 °F48 %29.85 in10.0 miCalmPartly Cloudy
12:55 AM84.2 °F62.6 °F48 %29.85 in10.0 miCalmClear
1:15 AM84.2 °F62.6 °F48 %29.85 in10.0 miCalmScattered Clouds
1:35 AM84.2 °F64.4 °F51 %29.85 in10.0 miCalmScattered Clouds
1:55 AM84.2 °F66.2 °F55 %29.85 in10.0 miNNE (20°)5.8 mphMostly Cloudy
2:15 AM82.4 °F68.0 °F62 %29.85 in10.0 miNNE (20°)11.5 mphMostly Cloudy
2:35 AM82.4 °F64.4 °F54 %29.86 in8.0 miNE (40°)10.4 mphMostly Cloudy
2:55 AM77.0 °F66.2 °F69 %29.87 in8.0 miNE (40°)15.0 mph0.02 inOvercast
3:15 AM77.0 °F66.2 °F69 %29.87 in10.0 miNE (40°)15.0 mphOvercast
3:35 AM77.0 °F66.2 °F69 %29.87 in10.0 miNE (40°)12.7 mphMostly Cloudy
3:55 AM77.0 °F66.2 °F69 %29.86 in10.0 miNE (40°)15.0 mphMostly Cloudy
4:15 AM77.0 °F66.2 °F69 %29.87 in10.0 miNNE (30°)12.7 mphMostly Cloudy
4:35 AM77.0 °F66.2 °F69 %29.86 in10.0 miNorth (360°)15.0 mph19.6 mphScattered Clouds
4:55 AM77.0 °F66.2 °F69 %29.86 in10.0 miNorth (350°)12.7 mphMostly Cloudy
5:15 AM75.2 °F66.2 °F73 %29.86 in10.0 miNorth (360°)13.8 mphMostly Cloudy
5:35 AM75.2 °F66.2 °F73 %29.86 in10.0 miNorth (360°)17.3 mphOvercast
5:55 AM77.0 °F66.2 °F69 %29.86 in10.0 miNorth (10°)17.3 mph23.0 mphOvercast
6:15 AM77.0 °F66.2 °F69 %29.86 in10.0 miNorth (10°)16.1 mphOvercast
6:35 AM77.0 °F66.2 °F69 %29.87 in10.0 miNNE (20°)16.1 mphOvercast
6:55 AM77.0 °F66.2 °F69 %29.87 in10.0 miNNE (20°)17.3 mphOvercast
7:15 AM77.0 °F66.2 °F69 %29.87 in10.0 miNNE (30°)17.3 mph23.0 mphMostly Cloudy
7:35 AM77.0 °F66.2 °F69 %29.87 in10.0 miNNE (20°)18.4 mph25.3 mphOvercast
7:55 AM77.0 °F66.2 °F69 %29.88 in10.0 miNNE (20°)17.3 mph24.2 mphOvercast
8:15 AM77.0 °F66.2 °F69 %29.88 in10.0 miNNE (30°)16.1 mphOvercast
8:35 AM77.0 °F66.2 °F69 %29.88 in10.0 miNNE (30°)16.1 mph20.7 mphOvercast
8:55 AM78.8 °F66.2 °F65 %29.88 in10.0 miNNE (30°)16.1 mph20.7 mphScattered Clouds
9:15 AM80.6 °F66.2 °F61 %29.89 in10.0 miNNE (20°)19.6 mph25.3 mphScattered Clouds
9:35 AM80.6 °F64.4 °F58 %29.87 in10.0 miNorth (10°)21.9 mph26.5 mphPartly Cloudy
9:55 AM82.4 °F66.2 °F58 %29.88 in10.0 miNorth (10°)19.6 mph27.6 mphClear
10:15 AM82.4 °F64.4 °F54 %29.87 in10.0 miNorth (360°)21.9 mph26.5 mphPartly Cloudy
10:35 AM82.4 °F64.4 °F54 %29.88 in10.0 miNorth (10°)17.3 mph25.3 mphMostly Cloudy
10:55 AM82.4 °F64.4 °F54 %29.87 in10.0 miNorth (360°)19.6 mphOvercast
11:15 AM82.4 °F64.4 °F54 %29.86 in10.0 miNorth (360°)19.6 mph25.3 mphMostly Cloudy
11:35 AM84.2 °F64.4 °F51 %29.86 in10.0 miNorth (350°)21.9 mph26.5 mphMostly Cloudy
11:55 AM86.0 °F64.4 °F48 %29.86 in10.0 miNorth (360°)17.3 mph27.6 mphPartly Cloudy
12:15 PM86.0 °F64.4 °F48 %29.85 in10.0 miNorth (350°)18.4 mph24.2 mphClear
12:35 PM86.0 °F64.4 °F48 %29.84 in10.0 miNorth (350°)19.6 mph26.5 mphClear
12:55 PM87.8 °F64.4 °F46 %29.84 in10.0 miNNW (340°)19.6 mphPartly Cloudy
1:15 PM87.8 °F64.4 °F46 %29.83 in10.0 miNNW (340°)20.7 mphPartly Cloudy
1:35 PM89.6 °F62.6 °F40 %29.82 in10.0 miNNW (330°)20.7 mph27.6 mphClear
1:55 PM89.6 °F62.6 °F40 %29.81 in10.0 miNorth (360°)21.9 mph26.5 mphClear
2:15 PM89.6 °F62.6 °F40 %29.80 in10.0 miNorth (360°)17.3 mphClear
2:35 PM91.4 °F62.6 °F38 %29.79 in10.0 miNorth (350°)13.8 mphClear
2:55 PM91.4 °F62.6 °F38 %29.78 in10.0 miNorth (360°)13.8 mphClear
3:15 PM91.4 °F60.8 °F36 %29.76 in10.0 miNNW (340°)16.1 mphClear
3:35 PM91.4 °F60.8 °F36 %29.75 in10.0 miNorth (350°)16.1 mphClear
3:55 PM91.4 °F60.8 °F36 %29.75 in10.0 miNorth (350°)18.4 mphClear
4:15 PM91.4 °F62.6 °F38 %29.75 in10.0 miNorth (350°)13.8 mphClear
4:35 PM91.4 °F59.0 °F34 %29.75 in10.0 miNorth (350°)15.0 mphClear
4:55 PM91.4 °F59.0 °F34 %29.74 in10.0 miNorth (350°)15.0 mph20.7 mphClear
5:15 PM91.4 °F59.0 °F34 %29.74 in10.0 miNNW (340°)16.1 mph19.6 mphClear
5:35 PM91.4 °F62.6 °F38 %29.73 in10.0 miNNW (340°)15.0 mphClear
5:55 PM91.4 °F62.6 °F38 %29.73 in10.0 miNorth (360°)13.8 mphClear
6:15 PM89.6 °F62.6 °F40 %29.72 in10.0 miNNW (340°)13.8 mphClear
6:35 PM89.6 °F62.6 °F40 %29.73 in10.0 miNorth (350°)11.5 mphClear
6:55 PM89.6 °F62.6 °F40 %29.73 in10.0 miNorth (350°)11.5 mphClear
7:15 PM89.6 °F62.6 °F40 %29.73 in10.0 miNorth (10°)11.5 mphClear
7:35 PM89.6 °F59.0 °F36 %29.73 in10.0 miNorth (10°)9.2 mphClear
7:55 PM89.6 °F59.0 °F36 %29.74 in10.0 miNNE (30°)9.2 mphClear
8:15 PM87.8 °F59.0 °F38 %29.74 in10.0 miNE (40°)9.2 mphClear
8:35 PM87.8 °F59.0 °F38 %29.75 in10.0 miNE (40°)11.5 mphClear
8:55 PM86.0 °F59.0 °F40 %29.75 in10.0 miNE (40°)9.2 mphClear
9:15 PM86.0 °F59.0 °F40 %29.76 in10.0 miNNE (20°)8.1 mphClear
9:35 PM84.2 °F62.6 °F48 %29.76 in10.0 miNNW (340°)6.9 mphClear
9:55 PM84.2 °F62.6 °F48 %29.76 in10.0 miNorth (360°)4.6 mphClear
10:15 PM86.0 °F62.6 °F45 %29.77 in10.0 miNorth (350°)8.1 mphClear
10:35 PM84.2 °F62.6 °F48 %29.77 in10.0 miNNW (340°)6.9 mphPartly Cloudy
10:55 PM84.2 °F62.6 °F48 %29.77 in10.0 miNorth (360°)9.2 mphPartly Cloudy
11:15 PM84.2 °F62.6 °F48 %29.77 in10.0 miNorth (10°)8.1 mphClear
11:35 PM84.2 °F62.6 °F48 %29.77 in10.0 miNNE (20°)6.9 mphClear
11:55 PM84.2 °F62.6 °F48 %29.77 in10.0 miNNE (30°)5.8 mphClear
Hourly data recorded from KIFP, located miles away from Laughlin, Nevada







STORIES FROM OUR PARTNERS